Weslaco, TX

1:40 PM CDT on September 20, 2017 (GMT -0500)
Weslaco

Weather History for KT65 - February, 2013

Change the Weather History Date:

Monday, February 4, 2013

  Actual Average (KMFE) Record (KMFE)
Temperature  
Mean Temperature 72 °F -  
Max Temperature 87 °F 71 °F 89 °F (2008)
Min Temperature 57 °F 52 °F 28 °F (2011)
Cooling Degree Days 7    
Growing Degree Days 22 (Base 50)    
Moisture  
Dew Point 57 °F    
Average Humidity 62    
Maximum Humidity 89    
Minimum Humidity 29    
Precipitation  
Precipitation 0.00 in - - ()
Sea Level Pressure  
Sea Level Pressure 29.88 in    
Wind  
Wind Speed 8 mph (South)    
Max Wind Speed 20 mph    
Max Gust Speed 28 mph    
Visibility 10 miles    
Events      
Averages and records for this station are not official NWS values.
T = Trace of Precipitation, MM = Missing Value Source: NWS Daily Summary

Daily Weather History Graph

Daily Weather History Graph

Search for Another Location

Airport or City:

Trip Planner

Search our weather history database for the weather conditions in past years. The results will help you decide how hot, cold, wet, or windy it might be!

Date:

Astronomy

Feb. 04, 2013 Rise Set
Actual Time 7:14 AM CST 6:17 PM CST
Civil Twilight 6:50 AM CST 6:41 PM CST
Nautical Twilight 6:23 AM CST 7:08 PM CST
Astronomical Twilight 5:55 AM CST 7:36 PM CST
Moon 1:45 AM CST (2/4) 12:50 PM CST (2/4)
Length of Visible Light 11h 50m
Length of Day
11h 03m
Last Quarter, 37% of the Moon is Illuminated
Feb 4
Last Quarter
Feb 10
New
Feb 17
First Quarter
Feb 25
Full
Mar 4
Last Quarter

Hourly Weather History & Observations

Time (CST) Temp. Heat Index Dew Point Humidity Pressure Visibility Wind Dir Wind Speed Gust Speed Precip Events Conditions
12:15 AM 63.0 °F - 54.9 °F 75% 30.01 in 10.0 mi SE 5.8 mph - N/A   Clear
12:35 AM 62.8 °F - 54.9 °F 75% 30.01 in 10.0 mi SE 3.5 mph - N/A   Clear
12:55 AM 63.1 °F - 54.9 °F 74% 30.01 in 10.0 mi SSE 5.8 mph - N/A   Mostly Cloudy
1:15 AM 63.1 °F - 54.9 °F 74% 30.00 in 10.0 mi SSE 6.9 mph - N/A   Mostly Cloudy
1:35 AM 63.5 °F - 55.0 °F 74% 29.98 in 10.0 mi SE 5.8 mph - N/A   Scattered Clouds
1:55 AM 63.9 °F - 55.4 °F 74% 29.97 in 10.0 mi SE 6.9 mph - N/A   Scattered Clouds
2:15 AM 64.4 °F - 55.4 °F 73% 29.96 in 10.0 mi SE 5.8 mph - N/A   Clear
2:35 AM 64.9 °F - 56.1 °F 73% 29.95 in 10.0 mi SE 5.8 mph - N/A   Mostly Cloudy
2:55 AM 65.7 °F - 56.7 °F 73% 29.94 in 10.0 mi SE 8.1 mph - N/A   Overcast
3:15 AM 66.4 °F - 57.4 °F 73% 29.93 in 10.0 mi SSE 8.1 mph - N/A   Overcast
4:55 AM 63.1 °F - 57.2 °F 81% 29.93 in 10.0 mi SSE 3.5 mph - N/A   Scattered Clouds
5:15 AM 62.6 °F - 57.2 °F 82% 29.92 in 10.0 mi Calm Calm - N/A   Scattered Clouds
5:35 AM 62.6 °F - 57.2 °F 82% 29.92 in 10.0 mi Calm Calm - N/A   Scattered Clouds
5:55 AM 62.1 °F - 57.2 °F 84% 29.93 in 10.0 mi Calm Calm - N/A   Scattered Clouds
6:55 AM 59.5 °F - 56.3 °F 89% 29.93 in 10.0 mi Calm Calm - N/A   Clear
7:35 AM 57.9 °F - 54.3 °F 88% 29.94 in 10.0 mi Calm Calm - N/A   Clear
7:55 AM 59.2 °F - 55.9 °F 89% 29.94 in 10.0 mi Calm Calm - N/A   Scattered Clouds
8:15 AM 61.7 °F - 57.7 °F 87% 29.96 in 10.0 mi Calm Calm - N/A   Mostly Cloudy
8:35 AM 66.0 °F - 60.3 °F 82% 29.96 in 10.0 mi South 5.8 mph - N/A   Mostly Cloudy
8:55 AM 68.2 °F - 60.3 °F 76% 29.94 in 10.0 mi South 8.1 mph - N/A   Mostly Cloudy
9:15 AM 69.8 °F - 60.1 °F 71% 29.94 in 10.0 mi South 15.0 mph - N/A   Scattered Clouds
9:35 AM 71.6 °F - 60.1 °F 67% 29.94 in 10.0 mi South 13.8 mph 18.4 mph N/A   Clear
9:55 AM 73.6 °F - 59.2 °F 61% 29.93 in 10.0 mi South 17.3 mph 21.9 mph N/A   Clear
10:15 AM 74.7 °F - 57.6 °F 55% 29.92 in 10.0 mi South 16.1 mph 24.2 mph N/A   Clear
10:35 AM 75.9 °F - 56.7 °F 51% 29.92 in 10.0 mi South 19.6 mph 26.5 mph N/A   Clear
10:55 AM 77.2 °F - 56.3 °F 48% 29.92 in 10.0 mi South 19.6 mph 26.5 mph N/A   Clear
11:15 AM 78.1 °F - 56.7 °F 48% 29.91 in 10.0 mi South 19.6 mph 27.6 mph N/A   Clear
11:35 AM 80.2 °F 80.4 °F 56.5 °F 44% 29.90 in 10.0 mi South 16.1 mph 24.2 mph N/A   Clear
11:55 AM 80.6 °F 80.7 °F 56.7 °F 44% 29.89 in 10.0 mi South 16.1 mph 23.0 mph N/A   Clear
12:15 PM 81.0 °F 80.9 °F 56.3 °F 43% 29.88 in 10.0 mi South 15.0 mph 25.3 mph N/A   Clear
12:35 PM 82.0 °F 81.6 °F 55.9 °F 41% 29.87 in 10.0 mi SSW 13.8 mph 25.3 mph N/A   Clear
12:55 PM 82.8 °F 82.0 °F 55.8 °F 39% 29.86 in 10.0 mi SSW 9.2 mph 21.9 mph N/A   Clear
1:15 PM 83.3 °F 82.5 °F 55.8 °F 39% 29.84 in 10.0 mi South 10.4 mph 20.7 mph N/A   Clear
1:55 PM 85.1 °F 83.6 °F 54.5 °F 35% 29.82 in 10.0 mi SW 10.4 mph 18.4 mph N/A   Clear
2:15 PM 86.2 °F 84.5 °F 54.5 °F 34% 29.81 in 10.0 mi SSW 10.4 mph - N/A   Clear
2:35 PM 86.0 °F 84.2 °F 54.1 °F 33% 29.80 in 10.0 mi South 9.2 mph - N/A   Clear
2:55 PM 86.4 °F 84.5 °F 54.1 °F 33% 29.78 in 10.0 mi South 10.4 mph 16.1 mph N/A   Clear
3:15 PM 87.3 °F 85.3 °F 54.1 °F 32% 29.78 in 10.0 mi South 11.5 mph - N/A   Clear
3:35 PM 87.1 °F 85.1 °F 53.8 °F 32% 29.78 in 10.0 mi SSW 11.5 mph 16.1 mph N/A   Clear
3:55 PM 87.1 °F - 52.5 °F 30% 29.77 in 10.0 mi SW 5.8 mph - N/A   Clear
4:15 PM 86.9 °F 84.8 °F 53.2 °F 31% 29.77 in 10.0 mi South 6.9 mph - N/A   Clear
4:35 PM 86.9 °F - 51.3 °F 29% 29.77 in 10.0 mi WSW 3.5 mph - N/A   Clear
4:55 PM 85.6 °F 84.5 °F 56.8 °F 37% 29.77 in 10.0 mi SSE 8.1 mph - N/A   Clear
5:15 PM 83.5 °F 83.1 °F 58.3 °F 42% 29.78 in 10.0 mi SSE 11.5 mph - N/A   Clear
5:35 PM 81.3 °F 81.6 °F 59.0 °F 46% 29.78 in 10.0 mi SSE 11.5 mph - N/A   Clear
5:55 PM 79.5 °F - 59.4 °F 50% 29.78 in 10.0 mi SSE 15.0 mph 20.7 mph N/A   Clear
6:15 PM 77.7 °F - 59.2 °F 53% 29.79 in 10.0 mi SSE 12.7 mph 17.3 mph N/A   Clear
6:35 PM 76.1 °F - 59.7 °F 57% 29.80 in 10.0 mi SSE 13.8 mph 18.4 mph N/A   Clear
6:55 PM 74.7 °F - 59.4 °F 59% 29.80 in 10.0 mi SSE 13.8 mph - N/A   Clear
7:15 PM 73.6 °F - 59.0 °F 60% 29.81 in 10.0 mi SSE 13.8 mph - N/A   Clear
7:35 PM 72.7 °F - 59.2 °F 62% 29.83 in 10.0 mi SSE 10.4 mph - N/A   Clear
7:55 PM 72.0 °F - 59.0 °F 64% 29.83 in 10.0 mi SSE 11.5 mph 16.1 mph N/A   Clear
8:15 PM 71.6 °F - 59.4 °F 65% 29.85 in 10.0 mi SSE 13.8 mph - N/A   Clear
8:35 PM 70.7 °F - 60.3 °F 69% 29.85 in 10.0 mi SSE 10.4 mph - N/A   Clear
8:55 PM 70.2 °F - 61.0 °F 73% 29.86 in 10.0 mi SSE 11.5 mph - N/A   Clear
9:15 PM 69.8 °F - 61.7 °F 75% 29.86 in 10.0 mi SSE 9.2 mph - N/A   Clear
9:35 PM 69.4 °F - 61.9 °F 77% 29.87 in 10.0 mi SSE 8.1 mph - N/A   Clear
10:15 PM 68.9 °F - 62.4 °F 80% 29.87 in 10.0 mi SSE 8.1 mph - N/A   Clear
10:35 PM 68.5 °F - 62.6 °F 81% 29.88 in 10.0 mi SSE 6.9 mph - N/A   Clear
11:15 PM 67.8 °F - 62.6 °F 83% 29.88 in 10.0 mi SSE 5.8 mph - N/A   Clear
11:35 PM 67.3 °F - 62.6 °F 85% 29.88 in 10.0 mi SSE 6.9 mph - N/A   Clear
11:55 PM 67.1 °F - 62.6 °F 85% 29.87 in 10.0 mi SSE 5.8 mph - N/A   Clear